This is the latest recevied weather packets stored in our database for station/object W4ZHA. If no packets are shown the sender has not sent any weather packets the latest 1 day(s).
| Time | Temp. | Humidity | Pressure | Rain* | Wind** | Luminosity | Snow |
|---|---|---|---|---|---|---|---|
| 1778047486 | 21.11° C | 63% | 1011.3 hPa | 0 mm | - | 0 W/m² | - |
| 1778046576 | 21.11° C | 62% | 1011.6 hPa | 0 mm | - | 0 W/m² | - |
| 1778046273 | 20.56° C | 63% | 1011.3 hPa | 0 mm | - | 0 W/m² | - |
| 1778045969 | 21.11° C | 62% | 1011.6 hPa | 0 mm | - | 0 W/m² | - |
| 1778045667 | 21.11° C | 61% | 1011.6 hPa | 0 mm | - | 0 W/m² | - |
| 1778045064 | 21.11° C | 60% | 1011.6 hPa | 0 mm | - | 0 W/m² | - |
| 1778044761 | 21.11° C | 60% | 1011.6 hPa | 0 mm | - | 0 W/m² | - |
| 1778044458 | 21.11° C | 60% | 1011.6 hPa | 0 mm | - | 0 W/m² | - |
| 1778044155 | 21.11° C | 60% | 1011.6 hPa | 0 mm | - | 0 W/m² | - |
| 1778043852 | 21.11° C | 60% | 1011.6 hPa | 0 mm | - | 0 W/m² | - |
| 1778043246 | 21.11° C | 60% | 1011.6 hPa | 0 mm | - | 0 W/m² | - |
| 1778042943 | 21.11° C | 60% | 1011.6 hPa | 0 mm | - | 0 W/m² | - |
| 1778042641 | 21.11° C | 62% | 1011.6 hPa | 0 mm | - | 0 W/m² | - |
| 1778041733 | 22.22° C | 61% | 1011.3 hPa | 0 mm | - | 0 W/m² | - |
| 1778041432 | 22.22° C | 61% | 1011.6 hPa | 0 mm | - | 0 W/m² | - |
| 1778041130 | 22.22° C | 60% | 1012 hPa | 0 mm | - | 0 W/m² | - |
| 1778040221 | 22.22° C | 60% | 1012 hPa | 0 mm | - | 0 W/m² | - |
| 1778039917 | 22.22° C | 59% | 1011.6 hPa | 0 mm | - | 0 W/m² | - |
| 1778039615 | 22.78° C | 59% | 1011.6 hPa | 0 mm | - | 0 W/m² | - |
| 1778039009 | 22.22° C | 59% | 1011.6 hPa | 0 mm | - | 0 W/m² | - |
| 1778038706 | 22.22° C | 59% | 1011.6 hPa | 0 mm | - | 0 W/m² | - |
| 1778038403 | 22.22° C | 63% | 1011.6 hPa | 0 mm | - | 0 W/m² | - |
| 1778038099 | 22.22° C | 59% | 1012.3 hPa | 0 mm | - | 0 W/m² | - |
| 1778037796 | 22.78° C | 59% | 1012 hPa | 0 mm | - | 0 W/m² | - |
| 1778037191 | 22.22° C | 59% | 1012 hPa | 0 mm | - | 0 W/m² | - |
* Rain latest hour (hover to see other rain measurements)
** Current wind speed in m/s (hover to see current wind gust speed)